| time (UTC) | temp F | wind direction | speed MPH | gust MPH | rain 1hr in | rain 24hr in | rain mn in | humidity % | barometer mb |
| 20260901143416 | 79 | 215 | 1.0 | 3.0 | 0.00 | 0.01 | 0.00 | 83 | 1016.0 |
| 20260901142930 | 79 | 265 | 1.0 | 5.0 | 0.00 | 0.01 | 0.00 | 83 | 1015.9 |
| 20260901142430 | 79 | 219 | 2.0 | 5.0 | 0.00 | 0.01 | 0.00 | 83 | 1016.0 |
| 20260901141948 | 79 | 188 | 2.0 | 4.0 | 0.00 | 0.01 | 0.00 | 84 | 1015.8 |
| 20260901141425 | 78 | 233 | 2.0 | 7.0 | 0.00 | 0.01 | 0.00 | 84 | 1015.9 |
| 20260901140944 | 78 | 197 | 3.0 | 7.0 | 0.00 | 0.01 | 0.00 | 84 | 1015.8 |
| 20260901140422 | 78 | 213 | 0.0 | 4.0 | 0.00 | 0.01 | 0.00 | 85 | 1015.8 |
| 20260901135922 | 78 | 255 | 2.0 | 3.0 | 0.00 | 0.01 | 0.00 | 85 | 1015.8 |
| 20260901135442 | 78 | 234 | 1.0 | 3.0 | 0.00 | 0.01 | 0.00 | 85 | 1015.6 |
| 20260901134921 | 77 | 230 | 1.0 | 4.0 | 0.00 | 0.01 | 0.00 | 85 | 1015.8 |
| 20260901134419 | 77 | 230 | 1.0 | 4.0 | 0.00 | 0.01 | 0.00 | 85 | 1015.6 |
| 20260901133920 | 77 | 221 | 1.0 | 2.0 | 0.00 | 0.01 | 0.00 | 85 | 1015.6 |
| 20260901133419 | 77 | 180 | 0.0 | 0.0 | 0.00 | 0.01 | 0.00 | 86 | 1015.6 |
| 20260901132918 | 76 | 180 | 0.0 | 3.0 | 0.00 | 0.01 | 0.00 | 86 | 1015.5 |
| 20260901132441 | 76 | 180 | 0.0 | 3.0 | 0.00 | 0.01 | 0.00 | 86 | 1015.6 |
| 20260901131939 | 76 | 240 | 0.0 | 3.0 | 0.00 | 0.01 | 0.00 | 86 | 1015.8 |
| 20260901131417 | 76 | 206 | 0.0 | 3.0 | 0.00 | 0.01 | 0.00 | 86 | 1016.1 |
| 20260901130937 | 76 | 221 | 0.0 | 2.0 | 0.00 | 0.01 | 0.00 | 86 | 1016.1 |
| 20260901130456 | 76 | 173 | 0.0 | 4.0 | 0.00 | 0.01 | 0.00 | 86 | 1016.1 |
| 20260901125953 | 76 | 218 | 2.0 | 4.0 | 0.00 | 0.01 | 0.00 | 86 | 1016.2 |
| 20260901125431 | 75 | 253 | 1.0 | 3.0 | 0.00 | 0.01 | 0.00 | 86 | 1016.0 |
| 20260901124930 | 75 | 228 | 1.0 | 3.0 | 0.00 | 0.01 | 0.00 | 86 | 1015.9 |
| 20260901124429 | 75 | 252 | 1.0 | 3.0 | 0.00 | 0.01 | 0.00 | 86 | 1015.8 |
| 20260901123929 | 75 | 232 | 0.0 | 2.0 | 0.00 | 0.01 | 0.00 | 86 | 1015.7 |
| 20260901123429 | 75 | 213 | 0.0 | 2.0 | 0.00 | 0.01 | 0.00 | 86 | 1015.6 |
| 20260901122948 | 75 | 205 | 0.0 | 4.0 | 0.00 | 0.01 | 0.00 | 86 | 1015.7 |
| 20260901122426 | 75 | 260 | 1.0 | 3.0 | 0.00 | 0.01 | 0.00 | 86 | 1015.8 |
| 20260901121925 | 75 | 240 | 0.0 | 3.0 | 0.00 | 0.01 | 0.00 | 86 | 1015.8 |
| 20260901121426 | 75 | 228 | 0.0 | 3.0 | 0.00 | 0.01 | 0.00 | 86 | 1015.8 |
| 20260901120925 | 75 | 242 | 1.0 | 3.0 | 0.00 | 0.01 | 0.00 | 86 | 1015.8 |
| 20260901120425 | 75 | 221 | 1.0 | 2.0 | 0.00 | 0.01 | 0.00 | 86 | 1015.5 |
| 20260901115926 | 74 | 270 | 0.0 | 4.0 | 0.00 | 0.01 | 0.00 | 86 | 1015.5 |
| 20260901115445 | 74 | 270 | 1.0 | 4.0 | 0.00 | 0.01 | 0.00 | 86 | 1015.5 |
| 20260901114923 | 74 | 210 | 1.0 | 3.0 | 0.00 | 0.01 | 0.00 | 86 | 1015.5 |
| 20260901114424 | 74 | 227 | 1.0 | 3.0 | 0.00 | 0.01 | 0.00 | 86 | 1015.5 |
| 20260901113923 | 74 | 236 | 0.0 | 2.0 | 0.00 | 0.01 | 0.00 | 86 | 1015.5 |
| 20260901113421 | 74 | 210 | 1.0 | 2.0 | 0.00 | 0.01 | 0.00 | 85 | 1015.5 |
| 20260901112920 | 74 | 217 | 0.0 | 0.0 | 0.00 | 0.01 | 0.00 | 85 | 1015.3 |
| 20260901112435 | 74 | 217 | 0.0 | 2.0 | 0.00 | 0.01 | 0.00 | 85 | 1015.2 |
| 20260901111953 | 74 | 217 | 1.0 | 2.0 | 0.00 | 0.01 | 0.00 | 85 | 1015.1 |
| 20260901111431 | 74 | 219 | 0.0 | 0.0 | 0.00 | 0.01 | 0.00 | 85 | 1015.1 |
| 20260901110931 | 74 | 219 | 0.0 | 2.0 | 0.00 | 0.01 | 0.00 | 84 | 1015.1 |
| 20260901110430 | 74 | 219 | 0.0 | 2.0 | 0.00 | 0.01 | 0.00 | 84 | 1015.0 |
| 20260901105928 | 74 | 219 | 0.0 | 3.0 | 0.00 | 0.01 | 0.00 | 84 | 1015.0 |
| 20260901105429 | 74 | 219 | 1.0 | 3.0 | 0.00 | 0.01 | 0.00 | 84 | 1015.0 |
| 20260901104929 | 74 | 190 | 0.0 | 1.0 | 0.00 | 0.01 | 0.00 | 84 | 1014.9 |
| 20260901104448 | 74 | 190 | 0.0 | 0.0 | 0.00 | 0.01 | 0.00 | 84 | 1014.9 |
| 20260901103924 | 74 | 190 | 0.0 | 2.0 | 0.00 | 0.01 | 0.00 | 84 | 1015.0 |
| 20260901103425 | 74 | 190 | 0.0 | 2.0 | 0.00 | 0.01 | 0.00 | 84 | 1015.1 |
| 20260901102924 | 74 | 198 | 0.0 | 3.0 | 0.00 | 0.01 | 0.00 | 84 | 1014.9 |
| 20260901102422 | 74 | 192 | 0.0 | 2.0 | 0.00 | 0.01 | 0.00 | 84 | 1014.9 |
| 20260901101921 | 74 | 199 | 0.0 | 2.0 | 0.00 | 0.01 | 0.00 | 85 | 1014.9 |
| 20260901101421 | 74 | 207 | 0.0 | 2.0 | 0.00 | 0.01 | 0.00 | 85 | 1015.0 |
| 20260901100920 | 74 | 236 | 0.0 | 2.0 | 0.00 | 0.01 | 0.00 | 85 | 1015.1 |
| 20260901100421 | 74 | 222 | 1.0 | 3.0 | 0.00 | 0.01 | 0.00 | 85 | 1015.0 |
| 20260901095919 | 74 | 190 | 1.0 | 3.0 | 0.00 | 0.01 | 0.00 | 85 | 1015.0 |
| 20260901095419 | 74 | 209 | 0.0 | 2.0 | 0.00 | 0.01 | 0.00 | 85 | 1015.0 |
| 20260901094919 | 74 | 229 | 0.0 | 2.0 | 0.00 | 0.01 | 0.00 | 85 | 1015.0 |
| 20260901094418 | 74 | 231 | 1.0 | 2.0 | 0.00 | 0.01 | 0.00 | 85 | 1014.9 |
| 20260901093918 | 73 | 193 | 0.0 | 2.0 | 0.00 | 0.01 | 0.00 | 85 | 1014.8 |
| 20260901093437 | 73 | 193 | 0.0 | 2.0 | 0.00 | 0.01 | 0.00 | 85 | 1014.8 |
| 20260901092915 | 74 | 215 | 0.0 | 2.0 | 0.00 | 0.01 | 0.00 | 85 | 1014.9 |
| 20260901092440 | 73 | 215 | 0.0 | 0.0 | 0.00 | 0.01 | 0.00 | 85 | 1014.9 |
| 20260901091941 | 74 | 215 | 0.0 | 1.0 | 0.00 | 0.01 | 0.00 | 84 | 1014.8 |
| 20260901091420 | 74 | 215 | 0.0 | 1.0 | 0.00 | 0.01 | 0.00 | 84 | 1014.8 |
| 20260901090919 | 74 | 215 | 0.0 | 0.0 | 0.00 | 0.01 | 0.00 | 84 | 1014.8 |
| 20260901090418 | 74 | 215 | 0.0 | 0.0 | 0.00 | 0.01 | 0.00 | 84 | 1014.8 |
| 20260901085917 | 74 | 215 | 0.0 | 0.0 | 0.00 | 0.01 | 0.00 | 83 | 1014.8 |
| 20260901085436 | 74 | 215 | 0.0 | 0.0 | 0.00 | 0.01 | 0.00 | 83 | 1014.7 |
| 20260901084915 | 74 | 215 | 0.0 | 0.0 | 0.00 | 0.01 | 0.00 | 83 | 1014.6 |
| 20260901084415 | 74 | 215 | 0.0 | 0.0 | 0.00 | 0.01 | 0.00 | 83 | 1014.7 |
| 20260901083933 | 74 | 215 | 0.0 | 0.0 | 0.00 | 0.01 | 0.00 | 82 | 1014.7 |
| 20260901083432 | 74 | 215 | 0.0 | 0.0 | 0.00 | 0.01 | 0.00 | 82 | 1014.7 |
| 20260901082931 | 75 | 215 | 0.0 | 0.0 | 0.00 | 0.01 | 0.00 | 82 | 1014.7 |
| 20260901082431 | 75 | 215 | 0.0 | 0.0 | 0.00 | 0.01 | 0.00 | 82 | 1014.7 |
| 20260901081929 | 75 | 215 | 0.0 | 1.0 | 0.00 | 0.01 | 0.00 | 82 | 1014.7 |
| 20260901081428 | 75 | 215 | 0.0 | 2.0 | 0.00 | 0.01 | 0.00 | 81 | 1014.7 |
| 20260901080927 | 75 | 215 | 1.0 | 2.0 | 0.00 | 0.01 | 0.00 | 81 | 1014.6 |
| 20260901080425 | 75 | 188 | 0.0 | 0.0 | 0.00 | 0.01 | 0.00 | 81 | 1014.6 |
| 20260901075944 | 75 | 188 | 0.0 | 0.0 | 0.00 | 0.01 | 0.00 | 81 | 1014.6 |
| 20260901075423 | 75 | 227 | 0.0 | 0.0 | 0.00 | 0.01 | 0.00 | 81 | 1014.6 |
| 20260901074922 | 75 | 226 | 0.0 | 2.0 | 0.00 | 0.01 | 0.00 | 81 | 1014.6 |
| 20260901074442 | 75 | 226 | 0.0 | 2.0 | 0.00 | 0.01 | 0.00 | 81 | 1014.5 |
| 20260901073923 | 75 | 238 | 1.0 | 2.0 | 0.00 | 0.01 | 0.00 | 81 | 1014.5 |
| 20260901073420 | 75 | 242 | 1.0 | 2.0 | 0.00 | 0.01 | 0.00 | 80 | 1014.5 |
| 20260901072919 | 76 | 221 | 1.0 | 3.0 | 0.00 | 0.01 | 0.00 | 80 | 1014.5 |
| 20260901072420 | 76 | 242 | 1.0 | 3.0 | 0.00 | 0.01 | 0.00 | 80 | 1014.5 |
| 20260901071939 | 76 | 215 | 1.0 | 2.0 | 0.00 | 0.01 | 0.00 | 80 | 1014.5 |
| 20260901071420 | 76 | 227 | 0.0 | 2.0 | 0.00 | 0.01 | 0.00 | 80 | 1014.5 |
| 20260901070919 | 76 | 229 | 0.0 | 2.0 | 0.00 | 0.01 | 0.00 | 80 | 1014.4 |
| 20260901070427 | 76 | 229 | 0.0 | 2.0 | 0.00 | 0.01 | 0.00 | 80 | 1014.4 |
| 20260901065943 | 76 | 209 | 1.0 | 2.0 | 0.00 | 0.01 | 0.00 | 80 | 1014.5 |
| 20260901065421 | 76 | 240 | 0.0 | 2.0 | 0.00 | 0.01 | 0.00 | 80 | 1014.4 |
| 20260901064921 | 76 | 248 | 1.0 | 2.0 | 0.00 | 0.01 | 0.00 | 80 | 1014.4 |
| 20260901064442 | 76 | 216 | 0.0 | 2.0 | 0.00 | 0.01 | 0.00 | 80 | 1014.5 |
| 20260901063919 | 76 | 198 | 1.0 | 2.0 | 0.00 | 0.01 | 0.00 | 80 | 1014.5 |
| 20260901063419 | 76 | 233 | 1.0 | 2.0 | 0.00 | 0.01 | 0.00 | 81 | 1014.5 |
| 20260901062919 | 76 | 234 | 1.0 | 3.0 | 0.00 | 0.01 | 0.00 | 81 | 1014.5 |
| 20260901062426 | 76 | 234 | 1.0 | 3.0 | 0.00 | 0.01 | 0.00 | 81 | 1014.6 |
| 20260901061924 | 76 | 230 | 1.0 | 2.0 | 0.00 | 0.01 | 0.00 | 81 | 1014.6 |
| 20260901061425 | 75 | 215 | 0.0 | 2.0 | 0.00 | 0.01 | 0.00 | 81 | 1014.7 |
| 20260901060924 | 75 | 208 | 0.0 | 2.0 | 0.00 | 0.01 | 0.00 | 81 | 1014.6 |
| 20260901060444 | 75 | 208 | 0.0 | 2.0 | 0.00 | 0.01 | 0.00 | 82 | 1014.7 |
| 20260901055943 | 75 | 184 | 1.0 | 2.0 | 0.00 | 0.01 | 0.00 | 82 | 1014.7 |
| 20260901055423 | 75 | 230 | 1.0 | 2.0 | 0.00 | 0.01 | 0.00 | 82 | 1014.8 |
| 20260901054922 | 76 | 223 | 0.0 | 0.0 | 0.00 | 0.01 | 0.00 | 82 | 1014.8 |
| 20260901054422 | 76 | 223 | 0.0 | 0.0 | 0.00 | 0.01 | 0.00 | 82 | 1014.8 |
| 20260901053942 | 76 | 223 | 0.0 | 0.0 | 0.00 | 0.01 | 0.00 | 82 | 1014.8 |
| 20260901053419 | 76 | 223 | 0.0 | 0.0 | 0.00 | 0.01 | 0.00 | 82 | 1014.8 |
| 20260901052917 | 76 | 223 | 0.0 | 0.0 | 0.00 | 0.01 | 0.00 | 82 | 1014.8 |
| 20260901052416 | 76 | 223 | 0.0 | 0.0 | 0.00 | 0.01 | 0.00 | 82 | 1014.7 |
| 20260901051915 | 76 | 223 | 0.0 | 0.0 | 0.00 | 0.01 | 0.00 | 81 | 1014.7 |
| 20260901051433 | 76 | 223 | 0.0 | 0.0 | 0.00 | 0.01 | 0.00 | 82 | 1014.5 |
| 20260901050933 | 76 | 223 | 0.0 | 0.0 | 0.00 | 0.01 | 0.00 | 82 | 1014.5 |
| 20260901050432 | 76 | 223 | 0.0 | 0.0 | 0.00 | 0.01 | 0.00 | 81 | 1014.6 |
| 20260901045927 | 77 | 223 | 0.0 | 0.0 | 0.00 | 0.01 | 0.00 | 81 | 1014.5 |
| 20260901045447 | 77 | 223 | 0.0 | 0.0 | 0.00 | 0.01 | 0.00 | 81 | 1014.6 |
| 20260901044946 | 77 | 223 | 0.0 | 0.0 | 0.00 | 0.01 | 0.00 | 81 | 1014.6 |
| 20260901044423 | 77 | 223 | 0.0 | 0.0 | 0.00 | 0.01 | 0.00 | 81 | 1014.5 |
| 20260901043925 | 77 | 223 | 0.0 | 0.0 | 0.00 | 0.01 | 0.00 | 80 | 1014.6 |
| 20260901043423 | 77 | 223 | 0.0 | 2.0 | 0.00 | 0.01 | 0.00 | 80 | 1014.6 |
| 20260901042922 | 77 | 223 | 0.0 | 2.0 | 0.00 | 0.01 | 0.00 | 80 | 1014.6 |
| 20260901042423 | 77 | 223 | 0.0 | 0.0 | 0.00 | 0.01 | 0.00 | 80 | 1014.6 |
| 20260901041922 | 78 | 223 | 0.0 | 2.0 | 0.00 | 0.01 | 0.00 | 80 | 1014.6 |
| 20260901041422 | 78 | 223 | 0.0 | 2.0 | 0.00 | 0.01 | 0.00 | 80 | 1014.4 |
| 20260901040921 | 78 | 223 | 0.0 | 0.0 | 0.00 | 0.01 | 0.00 | 79 | 1014.5 |
| 20260901040440 | 78 | 223 | 0.0 | 0.0 | 0.00 | 0.01 | 0.01 | 79 | 1014.4 |
| 20260901035919 | 78 | 223 | 0.0 | 0.0 | 0.00 | 0.01 | 0.01 | 79 | 1014.5 |
| 20260901035418 | 78 | 223 | 0.0 | 0.0 | 0.00 | 0.01 | 0.01 | 78 | 1014.4 |
| 20260901034919 | 78 | 223 | 0.0 | 0.0 | 0.00 | 0.01 | 0.01 | 78 | 1014.4 |
| 20260901034419 | 79 | 223 | 0.0 | 1.0 | 0.00 | 0.01 | 0.01 | 78 | 1014.6 |
| 20260901033919 | 79 | 223 | 0.0 | 2.0 | 0.00 | 0.01 | 0.01 | 78 | 1014.5 |
| 20260901033419 | 79 | 223 | 1.0 | 2.0 | 0.00 | 0.01 | 0.01 | 78 | 1014.4 |
| 20260901032917 | 79 | 205 | 0.0 | 0.0 | 0.00 | 0.01 | 0.01 | 77 | 1014.6 |
| 20260901032416 | 79 | 227 | 0.0 | 2.0 | 0.00 | 0.01 | 0.01 | 77 | 1014.5 |
| 20260901031936 | 79 | 227 | 0.0 | 2.0 | 0.00 | 0.01 | 0.01 | 77 | 1014.6 |
| 20260901031414 | 79 | 234 | 0.0 | 0.0 | 0.00 | 0.01 | 0.01 | 77 | 1014.6 |
| 20260901030916 | 79 | 234 | 0.0 | 0.0 | 0.00 | 0.01 | 0.01 | 77 | 1014.6 |
| 20260901030435 | 79 | 234 | 0.0 | 0.0 | 0.00 | 0.01 | 0.01 | 77 | 1014.7 |
| 20260901025959 | 79 | 234 | 0.0 | 0.0 | 0.00 | 0.01 | 0.01 | 76 | 1014.9 |
| 20260901025448 | 80 | 234 | 0.0 | 2.0 | 0.01 | 0.01 | 0.01 | 76 | 1014.8 |
| 20260901024927 | 80 | 197 | 0.0 | 2.0 | 0.01 | 0.01 | 0.01 | 76 | 1014.8 |
| 20260901024449 | 80 | 228 | 1.0 | 3.0 | 0.01 | 0.01 | 0.01 | 76 | 1014.9 |
| 20260901023926 | 80 | 216 | 1.0 | 3.0 | 0.01 | 0.01 | 0.01 | 76 | 1015.0 |
| 20260901023426 | 80 | 250 | 1.0 | 3.0 | 0.01 | 0.01 | 0.01 | 76 | 1014.9 |
| 20260901022925 | 80 | 236 | 1.0 | 3.0 | 0.01 | 0.01 | 0.01 | 76 | 1015.0 |
| 20260901022446 | 80 | 194 | 2.0 | 4.0 | 0.01 | 0.01 | 0.01 | 76 | 1014.9 |
| 20260901021928 | 80 | 217 | 1.0 | 4.0 | 0.01 | 0.01 | 0.01 | 77 | 1014.9 |
| 20260901021451 | 80 | 235 | 2.0 | 3.0 | 0.01 | 0.01 | 0.01 | 77 | 1015.0 |
| 20260901020949 | 80 | 242 | 2.0 | 3.0 | 0.01 | 0.01 | 0.01 | 77 | 1014.9 |
| 20260901020449 | 81 | 246 | 2.0 | 4.0 | 0.01 | 0.01 | 0.01 | 77 | 1014.7 |
| 20260901015926 | 81 | 250 | 2.0 | 4.0 | 0.01 | 0.01 | 0.01 | 77 | 1014.6 |
| 20260901015426 | 81 | 193 | 2.0 | 5.0 | 0.00 | 0.00 | 0.00 | 76 | 1014.6 |
| 20260901014926 | 81 | 238 | 2.0 | 4.0 | 0.00 | 0.00 | 0.00 | 76 | 1014.6 |
| 20260901014425 | 81 | 219 | 1.0 | 3.0 | 0.00 | 0.00 | 0.00 | 76 | 1014.5 |
| 20260901013924 | 81 | 236 | 2.0 | 3.0 | 0.00 | 0.00 | 0.00 | 75 | 1014.7 |
| 20260901013423 | 81 | 227 | 2.0 | 4.0 | 0.00 | 0.00 | 0.00 | 75 | 1014.6 |
| 20260901012924 | 81 | 226 | 2.0 | 4.0 | 0.00 | 0.00 | 0.00 | 75 | 1014.6 |
| 20260901012424 | 82 | 224 | 2.0 | 7.0 | 0.00 | 0.00 | 0.00 | 74 | 1014.3 |
| 20260901011945 | 82 | 159 | 3.0 | 5.0 | 0.00 | 0.00 | 0.00 | 74 | 1014.2 |
| 20260901011424 | 82 | 236 | 3.0 | 6.0 | 0.00 | 0.00 | 0.00 | 74 | 1014.2 |
| 20260901010923 | 82 | 202 | 4.0 | 6.0 | 0.00 | 0.00 | 0.00 | 73 | 1014.2 |
| 20260901010422 | 82 | 250 | 3.0 | 6.0 | 0.00 | 0.00 | 0.00 | 74 | 1014.1 |
| 20260901005940 | 82 | 201 | 4.0 | 6.0 | 0.00 | 0.00 | 0.00 | 74 | 1014.0 |
| 20260901005419 | 82 | 251 | 3.0 | 8.0 | 0.00 | 0.00 | 0.00 | 74 | 1014.0 |
| 20260901004918 | 82 | 228 | 3.0 | 8.0 | 0.00 | 0.00 | 0.00 | 74 | 1013.8 |
| 20260901004418 | 81 | 188 | 2.0 | 8.0 | 0.00 | 0.00 | 0.00 | 74 | 1013.7 |
| 20260901003945 | 81 | 242 | 2.0 | 9.0 | 0.00 | 0.00 | 0.00 | 75 | 1013.6 |
| 20260901003440 | 81 | 230 | 4.0 | 9.0 | 0.00 | 0.00 | 0.00 | 76 | 1013.5 |
| 20260901002919 | 81 | 221 | 3.0 | 5.0 | 0.00 | 0.00 | 0.00 | 76 | 1013.6 |
| 20260901002418 | 81 | 211 | 4.0 | 5.0 | 0.00 | 0.00 | 0.00 | 77 | 1013.5 |
| 20260901001917 | 81 | 223 | 3.0 | 10.0 | 0.00 | 0.00 | 0.00 | 77 | 1013.5 |
| 20260901001416 | 81 | 190 | 4.0 | 10.0 | 0.00 | 0.00 | 0.00 | 77 | 1013.5 |
| 20260901000917 | 81 | 235 | 3.0 | 7.0 | 0.00 | 0.00 | 0.00 | 78 | 1013.5 |
| 20260901000416 | 80 | 246 | 4.0 | 8.0 | 0.00 | 0.00 | 0.00 | 78 | 1013.6 |
| 20260831235934 | 80 | 229 | 4.0 | 8.0 | 0.00 | 0.00 | 0.00 | 79 | 1013.5 |
| 20260831235453 | 80 | 238 | 3.0 | 8.0 | 0.00 | 0.00 | 0.00 | 80 | 1013.5 |
| 20260831234929 | 80 | 242 | 4.0 | 7.0 | 0.00 | 0.00 | 0.00 | 81 | 1013.6 |
| 20260831234449 | 79 | 170 | 2.0 | 6.0 | 0.00 | 0.00 | 0.00 | 81 | 1013.5 |
| 20260831233928 | 79 | 248 | 3.0 | 5.0 | 0.00 | 0.00 | 0.00 | 82 | 1013.5 |
| 20260831233428 | 79 | 182 | 2.0 | 5.0 | 0.00 | 0.00 | 0.00 | 82 | 1013.4 |
| 20260831232927 | 79 | 192 | 3.0 | 5.0 | 0.00 | 0.00 | 0.00 | 83 | 1013.5 |
| 20260831232427 | 79 | 248 | 2.0 | 6.0 | 0.00 | 0.00 | 0.00 | 83 | 1013.6 |
| 20260831231927 | 79 | 205 | 3.0 | 7.0 | 0.00 | 0.00 | 0.00 | 83 | 1013.5 |
| 20260831231425 | 79 | 179 | 3.0 | 7.0 | 0.00 | 0.00 | 0.00 | 83 | 1013.5 |
| 20260831230924 | 79 | 243 | 4.0 | 8.0 | 0.00 | 0.00 | 0.00 | 83 | 1013.7 |
| 20260831230423 | 79 | 164 | 3.0 | 9.0 | 0.00 | 0.01 | 0.00 | 83 | 1013.4 |
| 20260831225923 | 79 | 222 | 3.0 | 9.0 | 0.00 | 0.01 | 0.00 | 83 | 1013.4 |
| 20260831225422 | 80 | 245 | 2.0 | 7.0 | 0.00 | 0.01 | 0.00 | 82 | 1013.1 |
| 20260831224940 | 80 | 173 | 2.0 | 6.0 | 0.00 | 0.01 | 0.00 | 82 | 1013.2 |
| 20260831224418 | 80 | 181 | 2.0 | 5.0 | 0.00 | 0.01 | 0.00 | 81 | 1013.4 |
| 20260831223917 | 81 | 211 | 2.0 | 8.0 | 0.00 | 0.01 | 0.00 | 80 | 1013.5 |
| 20260831223438 | 81 | 201 | 4.0 | 8.0 | 0.00 | 0.01 | 0.00 | 79 | 1013.5 |
| 20260831222958 | 82 | 181 | 3.0 | 7.0 | 0.00 | 0.01 | 0.00 | 77 | 1013.8 |
| 20260831222453 | 82 | 246 | 3.0 | 5.0 | 0.00 | 0.01 | 0.00 | 76 | 1014.6 |
| 20260831221931 | 82 | 236 | 2.0 | 4.0 | 0.00 | 0.01 | 0.00 | 76 | 1014.8 |
| 20260831221431 | 83 | 244 | 3.0 | 4.0 | 0.00 | 0.01 | 0.00 | 76 | 1015.4 |
| 20260831220932 | 83 | 233 | 2.0 | 3.0 | 0.00 | 0.01 | 0.00 | 75 | 1015.6 |
| 20260831220431 | 84 | 210 | 0.0 | 0.0 | 0.00 | 0.01 | 0.00 | 74 | 1015.7 |
| 20260831215930 | 84 | 280 | 0.0 | 1.0 | 0.00 | 0.01 | 0.00 | 73 | 1015.5 |
| 20260831215427 | 84 | 280 | 0.0 | 1.0 | 0.00 | 0.01 | 0.00 | 73 | 1015.5 |
| 20260831214929 | 84 | 181 | 0.0 | 3.0 | 0.00 | 0.01 | 0.00 | 71 | 1015.1 |
| 20260831214445 | 84 | 119 | 1.0 | 5.0 | 0.00 | 0.01 | 0.00 | 71 | 1014.8 |
| 20260831213923 | 84 | 174 | 1.0 | 5.0 | 0.00 | 0.01 | 0.00 | 70 | 1014.7 |
| 20260831213423 | 84 | 213 | 1.0 | 7.0 | 0.00 | 0.01 | 0.00 | 70 | 1014.4 |
| 20260831212923 | 84 | 171 | 3.0 | 7.0 | 0.00 | 0.01 | 0.00 | 70 | 1014.1 |
| 20260831212419 | 84 | 180 | 2.0 | 6.0 | 0.00 | 0.01 | 0.00 | 70 | 1013.8 |
| 20260831211919 | 85 | 215 | 1.0 | 7.0 | 0.00 | 0.01 | 0.00 | 70 | 1014.0 |
| 20260831211419 | 85 | 198 | 3.0 | 7.0 | 0.00 | 0.01 | 0.00 | 69 | 1014.0 |
| 20260831210939 | 85 | 180 | 3.0 | 7.0 | 0.00 | 0.01 | 0.00 | 69 | 1013.8 |
| 20260831210457 | 85 | 263 | 3.0 | 6.0 | 0.00 | 0.01 | 0.00 | 69 | 1013.8 |
| 20260831205431 | 85 | 234 | 3.0 | 9.0 | 0.00 | 0.01 | 0.00 | 68 | 1013.8 |
| 20260831204929 | 85 | 173 | 3.0 | 10.0 | 0.00 | 0.01 | 0.00 | 68 | 1014.0 |
| 20260831204429 | 85 | 126 | 3.0 | 10.0 | 0.00 | 0.01 | 0.00 | 67 | 1014.0 |
| 20260831203927 | 85 | 257 | 3.0 | 8.0 | 0.00 | 0.01 | 0.00 | 67 | 1014.2 |
| 20260831203425 | 85 | 223 | 4.0 | 8.0 | 0.00 | 0.01 | 0.00 | 67 | 1014.4 |
| 20260831203147 | 85 | 251 | 3.0 | 7.0 | 0.00 | 0.01 | 0.00 | 67 | 1014.3 |
| 20260831202415 | 85 | 159 | 3.0 | 7.0 | 0.00 | 0.01 | 0.00 | 68 | 1014.3 |
| 20260831201915 | 85 | 224 | 2.0 | 9.0 | 0.00 | 0.01 | 0.00 | 69 | 1014.4 |
| 20260831201433 | 85 | 232 | 3.0 | 9.0 | 0.00 | 0.01 | 0.00 | 69 | 1014.4 |
| 20260831200933 | 85 | 236 | 3.0 | 8.0 | 0.00 | 0.01 | 0.00 | 68 | 1014.4 |
| 20260831200539 | 85 | 218 | 3.0 | 10.0 | 0.00 | 0.01 | 0.00 | 68 | 1014.4 |
| 20260831195955 | 85 | 180 | 4.0 | 10.0 | 0.00 | 0.01 | 0.00 | 68 | 1014.4 |
| 20260831195432 | 84 | 244 | 4.0 | 8.0 | 0.00 | 0.01 | 0.00 | 68 | 1014.4 |
| 20260831195252 | 84 | 186 | 2.0 | 8.0 | 0.00 | 0.01 | 0.00 | 69 | 1014.5 |
| 20260831193419 | 83 | 210 | 3.0 | 8.0 | 0.00 | 0.01 | 0.00 | 68 | 1014.7 |
| 20260831192941 | 83 | 198 | 2.0 | 8.0 | 0.00 | 0.01 | 0.00 | 70 | 1014.7 |
| 20260831192420 | 83 | 209 | 3.0 | 8.0 | 0.00 | 0.01 | 0.00 | 70 | 1015.0 |
| 20260831191920 | 83 | 181 | 1.0 | 7.0 | 0.00 | 0.01 | 0.00 | 70 | 1015.1 |
| 20260831191419 | 82 | 151 | 3.0 | 8.0 | 0.00 | 0.01 | 0.00 | 70 | 1015.3 |
| 20260831190919 | 82 | 182 | 4.0 | 8.0 | 0.00 | 0.01 | 0.00 | 70 | 1015.4 |
| 20260831190419 | 81 | 178 | 2.0 | 5.0 | 0.00 | 0.01 | 0.00 | 73 | 1015.5 |
| 20260831185917 | 81 | 220 | 2.0 | 5.0 | 0.00 | 0.01 | 0.00 | 74 | 1015.5 |
| 20260831185416 | 80 | 150 | 1.0 | 4.0 | 0.00 | 0.01 | 0.00 | 73 | 1015.6 |
| 20260831184915 | 80 | 182 | 1.0 | 9.0 | 0.00 | 0.01 | 0.00 | 75 | 1015.7 |
| 20260831184434 | 80 | 223 | 3.0 | 9.0 | 0.00 | 0.01 | 0.00 | 76 | 1015.8 |
| 20260831183933 | 79 | 192 | 3.0 | 8.0 | 0.00 | 0.01 | 0.00 | 77 | 1015.6 |
| 20260831183432 | 79 | 174 | 3.0 | 8.0 | 0.00 | 0.01 | 0.00 | 77 | 1015.7 |
| 20260831182930 | 78 | 187 | 4.0 | 7.0 | 0.00 | 0.01 | 0.00 | 78 | 1015.8 |
| 20260831182431 | 78 | 227 | 2.0 | 7.0 | 0.00 | 0.01 | 0.00 | 78 | 1015.9 |
| 20260831181950 | 77 | 186 | 1.0 | 8.0 | 0.00 | 0.01 | 0.00 | 80 | 1016.0 |
| 20260831181427 | 77 | 201 | 1.0 | 6.0 | 0.00 | 0.01 | 0.00 | 81 | 1016.0 |
| 20260831180927 | 76 | 202 | 2.0 | 5.0 | 0.00 | 0.01 | 0.00 | 81 | 1015.9 |
| 20260831180425 | 76 | 201 | 3.0 | 5.0 | 0.00 | 0.01 | 0.00 | 82 | 1016.0 |
| 20260831175944 | 75 | 178 | 1.0 | 5.0 | 0.00 | 0.01 | 0.00 | 83 | 1016.1 |
| 20260831175443 | 75 | 204 | 3.0 | 5.0 | 0.00 | 0.01 | 0.00 | 84 | 1016.1 |
| 20260831174920 | 75 | 109 | 1.0 | 5.0 | 0.00 | 0.01 | 0.00 | 84 | 1016.1 |
| 20260831174418 | 74 | 226 | 1.0 | 5.0 | 0.00 | 0.01 | 0.00 | 85 | 1016.3 |
| 20260831173919 | 74 | 186 | 3.0 | 5.0 | 0.00 | 0.01 | 0.00 | 84 | 1016.4 |
| 20260831173418 | 74 | 177 | 0.0 | 5.0 | 0.00 | 0.01 | 0.00 | 85 | 1016.5 |
| 20260831172918 | 74 | 189 | 1.0 | 5.0 | 0.00 | 0.01 | 0.00 | 85 | 1016.7 |
| 20260831172418 | 73 | 197 | 2.0 | 9.0 | 0.00 | 0.01 | 0.00 | 85 | 1016.7 |
| 20260831171918 | 73 | 209 | 1.0 | 9.0 | 0.00 | 0.01 | 0.00 | 86 | 1016.8 |
| 20260831171418 | 73 | 201 | 1.0 | 4.0 | 0.00 | 0.01 | 0.00 | 87 | 1016.8 |
| 20260831170917 | 73 | 187 | 1.0 | 5.0 | 0.00 | 0.01 | 0.00 | 87 | 1016.9 |
| 20260831170415 | 73 | 188 | 1.0 | 6.0 | 0.00 | 0.01 | 0.00 | 88 | 1017.0 |
| 20260831165916 | 73 | 201 | 3.0 | 6.0 | 0.00 | 0.01 | 0.00 | 89 | 1016.8 |
| 20260831165416 | 72 | 191 | 1.0 | 8.0 | 0.00 | 0.01 | 0.00 | 89 | 1016.9 |
| 20260831164916 | 72 | 180 | 2.0 | 8.0 | 0.00 | 0.01 | 0.00 | 89 | 1017.1 |
| 20260831164415 | 72 | 197 | 1.0 | 4.0 | 0.00 | 0.01 | 0.00 | 89 | 1017.3 |
| 20260831163915 | 72 | 260 | 2.0 | 3.0 | 0.00 | 0.01 | 0.00 | 89 | 1017.7 |
| 20260831163432 | 72 | 232 | 1.0 | 3.0 | 0.00 | 0.01 | 0.00 | 89 | 1017.6 |
| 20260831162929 | 72 | 248 | 1.0 | 4.0 | 0.00 | 0.01 | 0.00 | 89 | 1017.3 |
| 20260831162448 | 72 | 227 | 1.0 | 5.0 | 0.00 | 0.01 | 0.00 | 90 | 1017.3 |
| 20260831161927 | 71 | 188 | 1.0 | 4.0 | 0.00 | 0.01 | 0.00 | 90 | 1017.2 |
| 20260831161426 | 71 | 240 | 1.0 | 4.0 | 0.00 | 0.01 | 0.00 | 90 | 1017.2 |
| 20260831160927 | 71 | 242 | 0.0 | 4.0 | 0.00 | 0.01 | 0.00 | 90 | 1016.9 |
| 20260831160427 | 71 | 168 | 0.0 | 3.0 | 0.00 | 0.02 | 0.00 | 90 | 1016.8 |
| 20260831155926 | 71 | 220 | 2.0 | 3.0 | 0.00 | 0.02 | 0.00 | 89 | 1016.9 |
| 20260831155426 | 71 | 173 | 1.0 | 3.0 | 0.00 | 0.02 | 0.00 | 89 | 1016.8 |
| 20260831154946 | 71 | 217 | 0.0 | 3.0 | 0.00 | 0.02 | 0.00 | 89 | 1016.9 |
| 20260831154424 | 71 | 261 | 1.0 | 3.0 | 0.00 | 0.02 | 0.00 | 89 | 1017.1 |
| 20260831153923 | 71 | 230 | 1.0 | 2.0 | 0.00 | 0.02 | 0.00 | 89 | 1017.1 |
| 20260831153423 | 71 | 219 | 0.0 | 3.0 | 0.00 | 0.02 | 0.00 | 89 | 1017.0 |
| 20260831152923 | 71 | 171 | 2.0 | 4.0 | 0.00 | 0.02 | 0.00 | 89 | 1016.8 |
| 20260831152424 | 71 | 194 | 0.0 | 2.0 | 0.00 | 0.02 | 0.00 | 89 | 1017.2 |
| 20260831151924 | 71 | 184 | 0.0 | 0.0 | 0.00 | 0.02 | 0.00 | 89 | 1017.5 |
| 20260831151424 | 71 | 184 | 0.0 | 0.0 | 0.00 | 0.02 | 0.00 | 89 | 1017.7 |
| 20260831150924 | 71 | 184 | 0.0 | 0.0 | 0.00 | 0.02 | 0.00 | 89 | 1017.8 |
| 20260831150442 | 71 | 184 | 0.0 | 0.0 | 0.00 | 0.07 | 0.00 | 89 | 1017.9 |
| 20260831145922 | 71 | 184 | 0.0 | 0.0 | 0.00 | 0.07 | 0.00 | 88 | 1017.6 |
| 20260831145423 | 71 | 184 | 0.0 | 3.0 | 0.00 | 0.07 | 0.00 | 88 | 1017.5 |
| 20260831144923 | 71 | 184 | 0.0 | 3.0 | 0.00 | 0.07 | 0.00 | 88 | 1017.5 |
| 20260831144423 | 71 | 234 | 0.0 | 0.0 | 0.00 | 0.07 | 0.00 | 88 | 1017.3 |
| 20260831143922 | 71 | 234 | 0.0 | 2.0 | 0.00 | 0.07 | 0.00 | 88 | 1017.5 |